• In Kazakhstan
  • List of Countries
  • For 7 days
  • Water Temperature
  • Satellite Maps
  • Weather Map
  • News
  • Weather Widgets
  • user-avatar
    Login

    Hourly Weather Kitzbuhel

    Today, 20 April, Saturday

    Time Temperature Precipitation Wind Pressure Humidity
    00:00 +6°C° 0 mm 2 mps 684 mmHg 70%
    01:00 +5°C° 0 mm 3 mps 684 mmHg 69%
    02:00 +6°C° 0 mm 2 mps 684 mmHg 71%
    03:00 +6°C° 0 mm 2 mps 684 mmHg 73%
    04:00 +5°C° 0 mm 2 mps 684 mmHg 74%
    05:00 +6°C° 0 mm 2 mps 684 mmHg 72%
    06:00 +7°C° 0 mm 2 mps 684 mmHg 69%
    07:00 +8°C° 0 mm 2 mps 684 mmHg 66%
    08:00 +12°C° 0 mm 1 mps 685 mmHg 57%
    09:00 +15°C° 0 mm 1 mps 685 mmHg 47%
    10:00 +17°C° 0 mm 0 mps 685 mmHg 37%
    11:00 +20°C° 0 mm 1 mps 685 mmHg 35%
    12:00 +21°C° 0 mm 1 mps 685 mmHg 32%
    13:00 +21°C° 0 mm 1 mps 685 mmHg 29%
    14:00 +21°C° 0 mm 1 mps 685 mmHg 30%
    15:00 +20°C° 0 mm 1 mps 684 mmHg 31%
    16:00 +20°C° 0 mm 1 mps 684 mmHg 32%
    17:00 +16°C° 0 mm 1 mps 683 mmHg 45%
    18:00 +13°C° 0 mm 1 mps 682 mmHg 57%
    19:00 +10°C° 0 mm 0 mps 682 mmHg 69%
    20:00 +10°C° 0 mm 1 mps 682 mmHg 69%
    21:00 +9°C° 0 mm 1 mps 682 mmHg 68%
    22:00 +8°C° 0 mm 2 mps 682 mmHg 68%
    23:00 +7°C° 0 mm 2 mps 682 mmHg 68%

    Tomorrow, 21 April, Sunday

    Time Temperature Precipitation Wind Pressure Humidity
    00:00 +7°C° 0 mm 2 mps 682 mmHg 68%
    01:00 +7°C° 0 mm 2 mps 682 mmHg 68%
    02:00 +6°C° 0 mm 2 mps 682 mmHg 68%
    03:00 +6°C° 0 mm 2 mps 681 mmHg 68%
    04:00 +6°C° 0 mm 2 mps 681 mmHg 69%
    05:00 +7°C° 0 mm 2 mps 681 mmHg 66%
    06:00 +9°C° 0 mm 1 mps 681 mmHg 63%
    07:00 +10°C° 0 mm 1 mps 681 mmHg 60%
    08:00 +13°C° 0 mm 1 mps 681 mmHg 52%
    09:00 +16°C° 0 mm 1 mps 681 mmHg 43%
    10:00 +20°C° 0 mm 1 mps 681 mmHg 35%
    11:00 +20°C° 0 mm 1 mps 681 mmHg 34%
    12:00 +21°C° 0 mm 1 mps 681 mmHg 32%
    13:00 +21°C° 0 mm 1 mps 680 mmHg 31%
    14:00 +21°C° 0 mm 1 mps 680 mmHg 33%
    15:00 +21°C° 0 mm 1 mps 679 mmHg 35%
    16:00 +19°C° 0 mm 2 mps 679 mmHg 37%
    17:00 +18°C° 0 mm 1 mps 678 mmHg 49%
    18:00 +14°C° 0 mm 1 mps 677 mmHg 60%
    19:00 +12°C° 0 mm 1 mps 677 mmHg 72%
    20:00 +11°C° 0 mm 1 mps 677 mmHg 73%
    21:00 +9°C° 0 mm 2 mps 677 mmHg 75%
    22:00 +9°C° 0 mm 2 mps 678 mmHg 77%
    23:00 +8°C° 0 mm 2 mps 677 mmHg 78%

    Day after tomorrow, 22 April, Monday

    Time Temperature Precipitation Wind Pressure Humidity
    00:00 +8°C° 0 mm 2 mps 677 mmHg 79%
    01:00 +8°C° 0 mm 2 mps 677 mmHg 80%
    02:00 +7°C° 0 mm 2 mps 676 mmHg 80%
    03:00 +7°C° 0 mm 2 mps 676 mmHg 81%
    04:00 +7°C° 0 mm 2 mps 675 mmHg 81%
    05:00 +8°C° 0 mm 2 mps 675 mmHg 75%
    06:00 +9°C° 0 mm 2 mps 675 mmHg 68%
    07:00 +10°C° 0 mm 2 mps 675 mmHg 62%
    08:00 +14°C° 0 mm 2 mps 675 mmHg 51%
    09:00 +16°C° 0 mm 1 mps 675 mmHg 41%
    10:00 +20°C° 0 mm 1 mps 675 mmHg 30%
    11:00 +21°C° 0 mm 1 mps 674 mmHg 29%
    12:00 +22°C° 0 mm 1 mps 674 mmHg 28%
    13:00 +23°C° 0 mm 2 mps 674 mmHg 26%
    14:00 +21°C° 0 mm 2 mps 673 mmHg 29%
    15:00 +21°C° 0 mm 2 mps 672 mmHg 31%
    16:00 +20°C° 0 mm 2 mps 671 mmHg 34%
    17:00 +18°C° 0 mm 2 mps 671 mmHg 46%
    18:00 +15°C° 0 mm 2 mps 670 mmHg 59%
    19:00 +12°C° 0 mm 2 mps 669 mmHg 71%
    20:00 +12°C° 0 mm 2 mps 669 mmHg 72%
    21:00 +10°C° 0 mm 2 mps 669 mmHg 73%
    22:00 +9°C° 0 mm 3 mps 669 mmHg 74%
    23:00 +9°C° 0 mm 3 mps 668 mmHg 73%

    23 April, Tuesday

    Time Temperature Precipitation Wind Pressure Humidity
    00:00 +8°C° 0 mm 3 mps 668 mmHg 72%
    01:00 +8°C° 0 mm 3 mps 667 mmHg 72%
    02:00 +8°C° 0 mm 3 mps 667 mmHg 72%
    03:00 +8°C° 0 mm 3 mps 667 mmHg 71%
    04:00 +8°C° 0 mm 3 mps 666 mmHg 71%
    05:00 +9°C° 0 mm 3 mps 666 mmHg 70%
    06:00 +10°C° 0 mm 2 mps 666 mmHg 69%
    07:00 +10°C° 0 mm 2 mps 666 mmHg 68%
    08:00 +13°C° 0 mm 2 mps 667 mmHg 62%
    09:00 +15°C° 0 mm 2 mps 667 mmHg 56%
    10:00 +17°C° 0 mm 2 mps 667 mmHg 49%
    11:00 +18°C° 0 mm 2 mps 667 mmHg 46%
    12:00 +20°C° 0 mm 2 mps 667 mmHg 43%
    13:00 +21°C° 0 mm 2 mps 668 mmHg 40%
    14:00 +20°C° 0.2 mm 2 mps 667 mmHg 44%
    15:00 +19°C° 0.2 mm 2 mps 667 mmHg 48%
    16:00 +18°C° 0.2 mm 2 mps 667 mmHg 52%
    17:00 +16°C° 0.1 mm 2 mps 667 mmHg 59%
    18:00 +14°C° 0.1 mm 2 mps 666 mmHg 67%
    19:00 +13°C° 0.1 mm 2 mps 666 mmHg 74%
    20:00 +12°C° 0 mm 2 mps 667 mmHg 75%
    21:00 +10°C° 0 mm 3 mps 667 mmHg 76%
    22:00 +9°C° 0 mm 3 mps 667 mmHg 77%
    23:00 +9°C° 0 mm 3 mps 668 mmHg 77%

    24 April, Wednesday

    Time Temperature Precipitation Wind Pressure Humidity
    00:00 +9°C° 0 mm 3 mps 668 mmHg 77%
    01:00 +9°C° 0 mm 3 mps 668 mmHg 77%
    02:00 +9°C° 0 mm 3 mps 669 mmHg 77%
    03:00 +9°C° 0 mm 3 mps 669 mmHg 77%
    04:00 +9°C° 0 mm 3 mps 669 mmHg 78%
    05:00 +9°C° 0 mm 2 mps 670 mmHg 74%
    06:00 +10°C° 0 mm 2 mps 670 mmHg 71%
    07:00 +12°C° 0 mm 2 mps 671 mmHg 68%
    08:00 +15°C° 0 mm 2 mps 672 mmHg 61%
    09:00 +17°C° 0 mm 2 mps 672 mmHg 54%
    10:00 +19°C° 0 mm 2 mps 673 mmHg 46%
    11:00 +20°C° 0 mm 2 mps 673 mmHg 43%
    12:00 +20°C° 0 mm 3 mps 673 mmHg 40%
    13:00 +21°C° 0 mm 3 mps 674 mmHg 37%
    14:00 +21°C° 0 mm 4 mps 673 mmHg 38%
    15:00 +20°C° 0 mm 4 mps 673 mmHg 39%
    16:00 +20°C° 0 mm 4 mps 673 mmHg 41%
    17:00 +18°C° 0 mm 3 mps 673 mmHg 49%
    18:00 +16°C° 0 mm 3 mps 672 mmHg 58%
    19:00 +13°C° 0 mm 3 mps 672 mmHg 66%
    20:00 +12°C° 0 mm 3 mps 673 mmHg 69%
    21:00 +11°C° 0 mm 3 mps 673 mmHg 71%
    22:00 +10°C° 0 mm 3 mps 674 mmHg 74%
    23:00 +10°C° 0 mm 3 mps 674 mmHg 74%

    25 April, Thursday

    Time Temperature Precipitation Wind Pressure Humidity
    00:00 +10°C° 0 mm 3 mps 674 mmHg 75%
    01:00 +10°C° 0 mm 3 mps 674 mmHg 75%
    02:00 +10°C° 0 mm 3 mps 674 mmHg 75%
    03:00 +9°C° 0 mm 3 mps 674 mmHg 76%
    04:00 +9°C° 0 mm 3 mps 674 mmHg 77%
    05:00 +10°C° 0 mm 3 mps 674 mmHg 74%
    06:00 +12°C° 0 mm 2 mps 674 mmHg 71%
    07:00 +13°C° 0 mm 2 mps 674 mmHg 68%
    08:00 +14°C° 0 mm 3 mps 675 mmHg 61%
    09:00 +17°C° 0 mm 3 mps 675 mmHg 55%
    10:00 +19°C° 0 mm 3 mps 675 mmHg 48%
    11:00 +19°C° 0 mm 3 mps 675 mmHg 45%
    12:00 +20°C° 0 mm 4 mps 675 mmHg 42%
    13:00 +21°C° 0 mm 4 mps 675 mmHg 38%
    14:00 +21°C° 0 mm 4 mps 674 mmHg 40%
    15:00 +20°C° 0 mm 4 mps 674 mmHg 41%
    16:00 +20°C° 0 mm 4 mps 673 mmHg 42%
    17:00 +18°C° 0 mm 4 mps 673 mmHg 50%
    18:00 +16°C° 0 mm 3 mps 672 mmHg 59%
    19:00 +13°C° 0 mm 3 mps 671 mmHg 67%
    20:00 +12°C° 0 mm 3 mps 671 mmHg 69%
    21:00 +12°C° 0 mm 3 mps 672 mmHg 70%
    22:00 +11°C° 0 mm 3 mps 672 mmHg 72%
    23:00 +11°C° 0 mm 3 mps 672 mmHg 73%
    Show more